Wetbulb
56.90 59.17 60.27 60.89 61.38 62.07 62.46 63.12 63.25 63.48 63.13 61.91 61.37 60.92 60.40 60.28 60.31 59.49 58.81 58.73 57.61 57.44 57.55 56.73 56.42 56.98 56.15 56.27 56.10 55.64 54.61 53.60 50.79 42.09 36.58 37.01 36.28 35.96 36.11 37.77 38.50 38.92 40.35
55.69 57.82 59.06 60.03 60.60 60.87 61.30 61.74 62.57 61.83 62.26 61.93 61.39 60.59 60.42 60.13 60.21 58.74 57.91 57.64 57.25 56.71 56.59 56.37 55.93 56.14 55.75 56.03 55.69 54.60 54.51 53.75 51.23 46.39 34.50 34.18 34.21 35.97 36.97 36.23 36.11 37.45 37.51
56.04 57.31 58.28 59.04 59.51 59.84 60.40 60.81 61.28 61.43 61.13 60.92 60.66 60.08 59.85 59.81 59.60 59.39 58.70 57.62 57.11 56.99 57.17 56.76 56.53 55.77 54.76 54.91 54.26 50.91 48.02 44.00 45.25 40.92 37.74 34.61 34.46 35.12 34.82 35.42 34.83 34.80 35.53
54.52 56.58 56.75 57.01 57.88 58.83 59.46 59.72 59.71 60.04 59.75 59.41 59.46 59.43 59.54 59.21 58.70 58.45 57.60 57.18 57.24 57.18 56.61 56.36 54.81 53.22 52.50 50.21 47.22 46.17 43.47 41.16 39.47 37.75 34.90 33.95 33.77 33.51 34.33 32.02 30.56 32.71 32.22
46.85 49.60 54.08 52.07 52.25 52.81 53.63 54.04 54.16 54.37 56.38 57.43 57.21 56.82 56.58 56.13 54.21 55.44 55.20 55.37 54.72 50.88 46.69 45.97 44.88 42.42 41.16 45.32 44.87 43.74 41.92 38.09 36.91 36.87 35.14 33.65 32.51 31.07 30.79 32.38 31.70 31.55 32.21
46.63 46.42 45.72 45.19 45.45 46.96 47.73 47.40 46.55 46.13 46.68 46.28 46.22 46.97 46.77 45.44 42.00 43.39 46.77 47.56 45.64 44.68 42.73 41.55 40.80 37.34 41.57 41.32 41.32 41.96 44.12 41.18 36.25 36.52 35.96 33.98 33.71 32.88 32.62 32.02 31.84 29.65 28.73
45.41 43.36 41.26 43.17 43.88 44.17 43.32 41.45 40.96 43.26 42.79 41.61 42.35 42.05 41.41 41.90 41.49 41.48 41.49 45.99 44.72 43.95 41.54 40.25 39.19 37.44 38.00 40.37 40.53 39.91 39.26 40.23 39.17 37.78 34.82 34.77 33.31 33.67 33.15 31.82 31.75 31.83 32.49
43.46 41.76 39.69 40.52 41.24 41.01 40.99 40.57 39.87 39.55 39.19 38.85 39.19 39.97 39.56 38.44 40.04 40.05 38.88 42.71 41.44 40.26 39.16 39.90 39.44 37.94 37.97 37.60 37.53 35.37 34.73 34.87 35.79 35.88 35.53 34.67 34.93 35.54 35.23 34.10 33.61 33.00 31.97
41.30 40.28 38.49 39.30 38.48 39.59 38.72 39.25 38.66 37.77 36.68 35.86 35.63 35.71 35.69 36.60 38.85 38.14 38.09 38.13 35.94 35.26 35.47 36.45 36.64 36.33 36.20 36.66 34.47 33.13 32.77 32.97 35.64 36.07 36.31 36.79 36.61 36.92 36.69 35.24 31.76 31.99 31.68
38.69 37.82 37.52 37.26 36.74 37.72 37.91 35.71 34.98 35.64 33.52 34.40 34.06 34.22 33.30 35.60 37.13 36.50 36.64 36.91 33.91 33.93 34.18 34.07 33.45 35.31 36.48 36.55 33.95 33.13 32.59 32.61 33.48 33.51 33.86 35.66 36.10 36.15 35.69 34.74 34.66 32.08 32.09
36.37 35.81 34.63 35.73 36.00 37.83 35.65 34.66 34.00 33.95 34.21 33.57 33.21 33.70 33.91 35.02 36.47 36.17 35.68 35.32 34.98 34.37 34.65 34.14 34.91 35.98 36.89 35.95 35.57 34.06 34.10 33.48 33.71 33.06 33.13 33.51 33.51 33.73 34.37 33.57 32.40 32.47 32.08
33.88 33.82 33.80 34.17 33.77 33.97 33.68 33.50 33.66 33.97 33.33 32.83 32.84 33.48 33.67 34.37 35.15 36.16 35.59 35.05 34.84 33.75 33.64 33.91 35.11 36.31 36.90 35.69 34.80 35.33 35.20 33.94 33.39 32.83 32.64 32.14 31.69 31.43 31.74 31.57 30.95 31.44 32.29
33.01 32.81 32.88 33.06 33.04 33.26 33.31 33.10 33.75 33.93 34.88 33.86 33.75 33.57 32.36 32.77 34.92 35.13 34.56 34.07 33.58 33.24 34.43 34.35 36.00 36.67 36.82 35.52 35.80 34.48 32.01 32.59 31.94 31.39 30.64 30.18 29.60 29.72 30.46 30.59 30.75 31.03 31.46
32.43 32.10 32.16 32.25 32.10 32.54 33.41 33.91 34.04 34.19 34.06 33.46 32.74 32.48 31.64 31.63 32.87 33.40 33.38 32.62 31.74 33.19 33.96 33.78 34.33 33.70 33.21 32.28 32.27 32.55 32.13 31.32 30.31 28.96 28.28 28.28 28.95 29.00 28.65 29.97 28.92 28.72 28.10
30.49 29.17 30.16 30.46 31.06 30.24 30.62 32.04 31.38 31.48 33.35 32.83 32.04 32.25 31.20 30.86 31.70 33.35 32.55 31.49 31.28 30.89 31.25 31.85 30.88 30.38 29.72 29.65 30.18 30.49 31.35 31.08 30.46 30.34 29.67 28.76 27.96 27.89 27.93 29.20 29.30 28.94 27.97
26.77 27.02 27.49 28.10 29.08 30.57 30.34 29.90 32.45 32.23 31.96 31.67 31.57 31.75 32.38 33.06 34.05 34.15 32.93 32.44 30.87 29.95 29.50 28.18 27.60 27.58 27.30 27.51 27.72 27.70 28.18 28.19 28.96 29.37 29.10 28.63 27.96 27.13 26.47 27.11 27.26 27.42 26.49
26.15 25.16 24.87 26.69 27.54 28.24 28.49 27.73 25.87 28.76 30.15 30.90 31.39 31.49 31.81 32.97 34.48 34.27 33.37 32.06 31.34 30.75 28.86 27.94 26.76 26.48 25.81 25.17 25.20 25.47 25.80 26.35 26.84 26.81 27.06 27.11 27.08 26.75 26.00 25.91 26.43 25.94 24.98
22.02 22.59 24.36 25.17 25.92 25.78 25.96 25.90 25.40 24.94 24.24 23.44 25.72 28.94 31.29 31.37 31.43 32.32 33.97 32.36 29.92 30.04 29.01 27.83 27.33 27.16 26.64 26.12 25.79 25.06 25.60 26.40 26.54 26.54 26.41 26.37 25.60 24.95 24.32 24.16 24.34 23.38 23.18
19.25 19.51 20.23 19.86 20.41 20.94 21.74 22.43 23.00 22.79 22.03 22.08 23.42 24.05 22.49 26.14 26.45 26.08 27.11 28.39 28.54 27.50 27.17 27.00 26.36 26.08 26.45 26.37 26.01 25.77 24.28 24.29 23.48 23.26 23.64 22.51 22.46 22.04 22.11 22.18 21.71 19.65 19.05
14.98 15.83 16.44 17.04 17.73 17.79 18.53 18.33 18.03 18.07 17.94 17.39 17.14 18.80 18.54 22.73 20.95 19.01 18.06 19.25 20.04 20.17 19.50 19.68 18.85 19.17 19.42 19.67 20.29 20.38 20.74 20.76 20.75 20.28 20.06 19.81 19.68 19.54 19.09 18.74 18.39 17.97 18.33
13.03 12.92 13.34 13.24 13.05 13.42 13.67 13.55 14.24 14.61 14.40 13.55 12.24 16.03 18.43 14.35 13.78 13.36 13.49 13.01 12.41 12.63 13.25 14.02 14.85 15.02 15.28 15.40 15.42 16.45 16.19 16.83 16.45 15.69 15.95 16.52 16.24 15.72 16.84 16.82 16.61 16.15 15.19
11.81 11.05 10.78 10.57 10.58 10.07 10.18 10.52 10.58 10.46 9.80 9.80 9.52 10.49 13.71 10.79 10.43 10.39 10.71 10.66 9.64 9.00 9.58 9.62 10.70 12.16 12.08 12.11 12.79 13.09 13.09 13.09 13.76 13.19 13.07 12.41 12.54 13.91 13.47 13.48 13.31 13.54 13.46
9.38 9.54 9.09 8.71 8.87 9.12 9.00 8.65 8.48 8.41 8.21 8.25 7.87 8.18 8.48 8.53 7.91 7.81 8.07 8.28 8.03 7.78 8.18 7.05 7.46 7.91 10.07 9.04 9.25 9.51 9.75 10.79 11.36 10.76 9.55 10.52 10.78 11.54 11.82 11.45 11.71 10.69 10.73
7.60 7.61 7.48 7.29 7.14 7.45 7.32 7.38 7.71 7.07 6.41 6.51 6.26 6.20 6.25 6.47 6.17 5.73 5.47 5.93 5.34 5.71 5.98 4.93 4.37 4.40 4.96 5.32 7.34 7.50 6.72 6.21 7.72 7.07 6.65 7.40 8.27 9.16 8.77 9.22 8.96 8.92 8.65
5.94 5.82 5.79 5.38 5.37 5.10 5.17 5.19 5.21 5.08 4.91 4.75 4.73 4.61 4.73 4.80 4.45 4.67 4.89 4.25 3.02 2.56 3.08 3.19 3.33 3.18 2.67 1.94 2.38 3.49 4.06 3.85 3.90 5.19 5.80 5.45 5.83 6.28 6.22 6.43 6.88 7.65 7.18
4.26 4.07 4.02 4.10 3.74 3.46 3.03 2.71 2.81 2.98 2.79 3.17 3.35 3.09 2.56 2.38 2.51 2.53 2.44 1.61 1.06 1.20 1.19 2.00 2.18 1.10 0.83 2.08 2.67 2.92 1.58 3.70 3.07 1.34 4.11 5.70 5.24 5.52 5.76 4.90 4.46 5.18 5.49
MSLP
1008.88 1008.82 1008.89 1009.05 1009.26 1009.48 1009.58 1009.66 1010.00 1010.44 1010.66 1010.82 1011.34 1011.96 1012.50 1012.80 1013.15 1013.57 1013.72 1013.96 1014.21 1014.41 1014.61 1014.79 1014.88 1014.98 1015.12 1015.25 1015.32 1015.38 1015.48 1015.84 1016.12 1016.95 1017.97 1018.39 1019.01 1019.35 1019.66 1019.98 1020.22 1020.62 1020.91
1008.62 1008.61 1008.60 1008.67 1008.80 1008.91 1009.03 1009.23 1009.54 1009.90 1010.23 1010.54 1010.91 1011.24 1011.48 1011.79 1012.23 1012.66 1013.01 1013.29 1013.41 1013.66 1013.78 1013.96 1013.97 1014.12 1014.17 1014.24 1014.35 1014.42 1014.61 1014.77 1015.30 1016.29 1017.43 1018.37 1018.73 1018.78 1019.30 1019.81 1019.96 1020.14 1020.50
1008.57 1008.54 1008.52 1008.54 1008.58 1008.55 1008.56 1008.77 1009.02 1009.36 1009.62 1009.99 1010.28 1010.56 1010.85 1011.16 1011.36 1011.71 1012.07 1012.36 1012.58 1012.71 1012.87 1012.99 1013.03 1013.28 1013.27 1013.47 1013.61 1013.86 1014.19 1014.63 1015.18 1015.92 1017.08 1018.04 1018.25 1018.58 1019.15 1019.57 1019.57 1019.92 1020.22
1008.56 1008.47 1008.47 1008.47 1008.56 1008.65 1008.67 1008.70 1008.82 1009.04 1009.26 1009.42 1009.61 1009.77 1010.12 1010.42 1010.84 1011.06 1011.31 1011.59 1011.91 1012.02 1012.06 1012.30 1012.54 1012.66 1012.79 1013.08 1013.26 1013.67 1014.27 1014.83 1015.44 1015.81 1016.74 1017.40 1017.74 1018.40 1018.78 1019.17 1019.59 1019.78 1020.01
1008.90 1008.73 1008.68 1008.80 1008.90 1009.04 1009.17 1009.21 1009.22 1009.21 1009.10 1009.25 1009.39 1009.56 1009.75 1010.03 1010.18 1010.38 1010.61 1010.92 1011.16 1011.67 1012.11 1012.40 1012.58 1012.61 1012.78 1012.92 1013.28 1013.52 1013.91 1014.62 1015.29 1015.78 1016.31 1016.82 1017.24 1017.99 1018.27 1018.79 1019.30 1019.80 1019.90
1009.27 1009.17 1009.08 1009.26 1009.35 1009.42 1009.70 1009.89 1009.94 1009.87 1009.68 1009.54 1009.55 1009.66 1010.03 1010.36 1010.51 1010.46 1010.50 1010.77 1011.14 1011.57 1012.01 1012.35 1012.60 1012.82 1012.82 1013.10 1013.30 1013.41 1013.82 1014.14 1014.93 1015.39 1015.95 1016.41 1016.80 1017.01 1017.68 1018.35 1018.91 1019.60 1019.92
1009.52 1009.67 1009.68 1009.75 1009.90 1010.00 1010.11 1010.31 1010.47 1010.49 1010.48 1010.50 1010.52 1010.53 1010.74 1010.94 1011.01 1010.98 1011.02 1010.99 1011.34 1011.65 1012.16 1012.44 1012.92 1013.14 1013.23 1013.32 1013.69 1013.96 1014.16 1014.46 1014.99 1015.45 1015.81 1016.14 1016.46 1016.46 1017.19 1017.70 1018.23 1018.58 1018.51
1009.53 1010.11 1010.20 1010.11 1010.33 1010.42 1010.58 1010.64 1010.92 1011.14 1011.07 1011.05 1011.16 1011.33 1011.58 1011.69 1011.66 1011.50 1011.55 1011.74 1012.05 1012.25 1012.60 1013.04 1013.09 1013.24 1013.44 1013.76 1014.04 1014.55 1014.77 1015.03 1015.16 1015.40 1015.70 1015.79 1015.89 1016.14 1016.76 1017.05 1017.73 1018.40 1018.75
1009.24 1009.85 1010.14 1010.19 1010.52 1010.67 1010.83 1011.12 1011.08 1011.25 1011.53 1011.65 1011.85 1011.97 1011.95 1012.12 1011.98 1012.03 1012.13 1012.47 1012.92 1013.15 1013.36 1013.62 1013.73 1013.49 1013.71 1014.10 1014.19 1015.02 1015.10 1015.26 1015.21 1015.57 1015.76 1015.79 1016.06 1016.35 1016.80 1017.38 1018.05 1018.59 1018.84
1009.25 1009.83 1010.18 1010.23 1010.53 1010.71 1010.91 1011.22 1011.56 1011.62 1011.62 1011.65 1011.89 1012.30 1012.26 1012.08 1012.09 1012.29 1012.57 1012.90 1013.41 1013.69 1013.74 1013.96 1013.77 1013.95 1013.93 1014.04 1014.57 1015.19 1015.14 1015.49 1015.81 1016.17 1016.29 1016.34 1016.51 1016.91 1017.39 1017.69 1018.18 1018.43 1018.60
1009.58 1009.74 1010.05 1010.27 1010.62 1010.66 1011.06 1011.48 1011.82 1012.02 1011.98 1012.09 1012.21 1012.37 1012.44 1012.53 1012.42 1012.40 1012.57 1012.81 1013.09 1013.43 1013.90 1014.04 1014.26 1014.14 1014.20 1014.52 1014.95 1015.16 1015.30 1015.62 1015.99 1016.34 1016.57 1016.87 1017.17 1017.43 1017.68 1017.85 1018.11 1018.45 1018.50
1010.36 1010.26 1010.28 1010.53 1010.98 1011.11 1011.42 1011.85 1012.13 1012.41 1012.64 1012.16 1012.25 1012.78 1013.20 1012.74 1012.71 1012.94 1012.92 1013.12 1013.51 1013.62 1014.09 1014.38 1014.23 1014.37 1014.66 1014.84 1015.04 1015.24 1015.48 1015.90 1016.29 1016.53 1016.87 1017.10 1017.44 1017.62 1017.98 1018.06 1018.14 1018.29 1018.52
1010.70 1010.74 1010.81 1010.97 1011.15 1011.42 1011.88 1012.14 1012.38 1012.73 1012.96 1013.10 1012.92 1012.95 1013.45 1013.69 1013.42 1013.52 1013.67 1013.71 1014.07 1014.22 1014.31 1014.50 1014.58 1014.58 1014.92 1015.23 1015.38 1015.63 1015.99 1016.26 1016.67 1016.78 1016.98 1017.16 1017.66 1017.85 1018.03 1018.19 1018.18 1018.29 1018.38
1011.03 1011.11 1011.25 1011.33 1011.60 1012.04 1012.32 1012.49 1012.56 1012.83 1012.85 1012.96 1013.29 1013.70 1013.90 1013.78 1013.83 1014.08 1014.22 1014.50 1014.60 1014.65 1014.80 1014.87 1015.06 1015.34 1015.56 1015.75 1015.99 1016.39 1016.48 1016.60 1016.60 1016.96 1017.24 1017.25 1017.57 1017.88 1018.03 1018.16 1018.24 1018.37 1018.47
1011.41 1011.52 1011.82 1011.86 1012.02 1012.53 1012.85 1013.03 1013.11 1013.22 1013.02 1013.10 1013.44 1013.81 1014.08 1014.13 1014.15 1014.24 1014.54 1014.86 1015.06 1015.26 1015.28 1015.51 1015.87 1015.95 1016.22 1016.43 1016.71 1016.89 1016.82 1016.66 1016.56 1016.90 1016.97 1017.06 1017.31 1017.62 1017.88 1018.14 1018.04 1017.90 1017.95
1012.10 1012.01 1012.31 1012.62 1012.78 1012.93 1013.23 1013.69 1013.71 1013.71 1013.67 1013.88 1014.11 1014.28 1014.52 1014.48 1014.49 1014.70 1014.93 1015.12 1015.35 1015.59 1015.85 1016.07 1016.38 1016.63 1016.96 1017.17 1017.24 1016.98 1017.02 1016.77 1016.83 1016.79 1016.86 1017.01 1017.22 1017.51 1017.70 1017.92 1018.10 1018.01 1017.89
1012.80 1012.90 1012.91 1013.38 1013.65 1013.65 1013.79 1014.11 1014.28 1014.71 1014.79 1014.76 1014.79 1014.97 1015.09 1015.02 1014.90 1015.02 1015.28 1015.57 1015.85 1015.93 1016.10 1016.59 1016.93 1017.27 1017.68 1017.63 1017.44 1017.21 1017.05 1017.08 1017.33 1017.36 1017.31 1017.43 1017.71 1017.77 1017.75 1017.65 1017.91 1018.01 1017.94
1013.80 1013.72 1013.66 1014.23 1014.43 1014.79 1014.94 1015.04 1015.25 1015.04 1015.34 1015.78 1015.89 1015.62 1015.51 1015.54 1015.64 1015.69 1015.73 1015.86 1016.24 1016.40 1016.49 1016.78 1017.15 1017.42 1017.44 1017.41 1017.29 1017.28 1017.34 1017.42 1017.41 1017.53 1017.56 1017.69 1017.93 1017.95 1017.89 1017.84 1017.99 1018.08 1018.13
1014.85 1014.65 1014.60 1014.96 1015.47 1015.93 1016.43 1016.33 1016.20 1015.99 1016.37 1016.76 1016.72 1016.54 1016.64 1016.49 1016.61 1016.74 1016.85 1016.79 1016.79 1017.07 1017.29 1017.22 1017.33 1017.51 1017.54 1017.53 1017.50 1017.50 1017.70 1017.78 1017.92 1018.04 1018.00 1018.06 1018.05 1018.03 1017.87 1017.94 1018.06 1018.33 1018.53
1016.25 1016.17 1016.07 1016.13 1016.46 1017.17 1017.73 1017.31 1016.94 1017.13 1017.30 1017.82 1018.16 1017.98 1017.87 1017.36 1017.69 1018.17 1018.35 1018.25 1018.06 1018.10 1018.22 1018.34 1018.50 1018.52 1018.45 1018.43 1018.37 1018.35 1018.33 1018.33 1018.36 1018.40 1018.33 1018.29 1018.19 1018.10 1018.06 1018.05 1018.17 1018.17 1018.27
1018.18 1018.02 1017.87 1017.62 1017.83 1018.47 1018.94 1018.79 1018.38 1018.31 1018.44 1018.82 1019.22 1019.20 1019.15 1019.18 1019.18 1019.21 1019.37 1019.32 1019.30 1019.33 1019.36 1019.35 1019.22 1019.18 1019.14 1019.08 1019.00 1018.95 1019.02 1018.92 1018.78 1018.59 1018.41 1018.21 1018.17 1018.00 1017.93 1018.17 1018.20 1018.24 1018.21
1019.67 1019.46 1019.30 1019.59 1019.80 1019.98 1020.26 1020.06 1019.91 1019.82 1019.82 1019.98 1020.25 1020.22 1020.09 1020.18 1020.18 1020.00 1019.97 1020.05 1020.23 1020.34 1020.39 1020.28 1019.97 1019.71 1019.62 1019.61 1019.54 1019.44 1019.27 1019.05 1018.83 1018.78 1018.66 1018.56 1018.50 1018.34 1018.39 1018.34 1018.16 1018.13 1018.16
1020.99 1020.74 1020.78 1020.90 1020.89 1021.15 1021.06 1021.01 1021.00 1020.91 1020.99 1021.11 1021.07 1021.02 1020.94 1020.87 1020.92 1020.85 1020.71 1020.62 1020.61 1020.63 1020.62 1020.72 1020.50 1020.24 1019.97 1020.02 1019.91 1019.74 1019.47 1019.11 1018.90 1018.80 1018.80 1018.66 1018.56 1018.42 1018.40 1018.38 1018.16 1017.99 1017.95
1022.29 1022.03 1021.99 1021.95 1022.02 1022.06 1022.19 1022.08 1022.10 1022.06 1022.04 1021.94 1021.96 1021.86 1021.73 1021.56 1021.39 1021.36 1021.13 1020.91 1020.77 1020.62 1020.58 1020.61 1020.52 1020.41 1020.15 1019.89 1019.69 1019.50 1019.35 1019.13 1018.86 1018.79 1018.84 1018.82 1018.68 1018.49 1018.55 1018.35 1018.17 1018.01 1018.00
1023.35 1023.02 1022.90 1022.92 1022.87 1022.93 1022.84 1022.69 1022.66 1022.62 1022.59 1022.55 1022.45 1022.35 1022.10 1021.85 1021.65 1021.47 1021.22 1020.94 1020.76 1020.55 1020.34 1020.29 1020.06 1019.77 1019.60 1019.47 1019.27 1019.03 1018.85 1018.62 1018.45 1018.32 1018.36 1018.38 1018.24 1018.24 1018.24 1017.97 1017.82 1017.60 1017.64
1024.30 1024.05 1023.86 1023.68 1023.62 1023.61 1023.53 1023.34 1023.22 1023.15 1023.03 1022.92 1022.75 1022.54 1022.34 1022.04 1021.78 1021.51 1021.30 1021.02 1020.80 1020.38 1020.10 1019.89 1019.53 1019.28 1019.05 1018.77 1018.52 1018.31 1018.22 1018.04 1017.82 1017.75 1017.74 1017.66 1017.61 1017.49 1017.50 1017.48 1017.36 1017.24 1017.13
Wind_Speed
12 13 15 14 16 16 15 15 15 15 14 14 15 15 15 15 15 14 14 14 13 13 12 12 14 14 10 9 9 9 10 9 11 2 2 3 7 8 8 10 10 11 11
10 11 12 13 13 14 14 15 13 12 14 14 14 14 15 15 14 13 13 12 13 12 13 13 14 10 13 12 9 11 10 9 7 7 3 3 4 8 8 10 8 8 9
6 8 10 10 11 13 13 14 13 13 12 13 13 14 14 13 13 13 13 12 12 13 13 13 13 13 12 9 8 6 4 3 3 3 3 1 2 5 5 6 7 7 7
5 6 8 8 9 10 10 11 11 11 11 10 12 13 12 12 11 11 11 11 12 11 11 10 9 8 8 6 5 6 4 4 3 3 2 3 2 2 4 6 5 4 6
4 4 6 3 3 4 4 5 5 5 7 8 9 8 7 8 6 9 9 9 9 6 4 2 2 2 3 5 4 5 6 4 3 4 3 2 4 3 6 4 5 4 5
5 4 3 2 1 3 3 2 1 1 2 3 4 5 5 2 4 6 6 5 4 5 6 5 5 3 2 3 3 3 8 6 4 3 2 2 3 4 4 5 4 4 4
5 4 4 4 4 3 3 3 2 2 1 2 2 3 3 3 2 2 4 4 5 5 5 4 3 2 1 1 1 1 1 3 3 3 3 4 3 6 7 7 7 6 3
6 5 4 4 4 3 3 4 3 1 3 3 3 3 4 3 2 4 5 3 4 4 4 3 2 3 3 1 3 4 4 3 2 2 2 3 2 5 7 5 6 4 2
7 7 5 5 5 5 4 4 3 3 3 3 3 4 4 3 5 5 5 4 4 5 4 5 3 4 4 5 5 4 3 3 3 1 2 2 5 9 8 5 5 4 3
7 5 4 5 5 5 5 4 1 2 4 4 5 4 4 5 8 7 5 4 4 4 4 3 6 3 6 7 5 3 4 3 4 4 4 5 5 3 7 3 4 3 1
3 4 3 4 4 4 4 2 3 4 5 5 6 4 4 3 6 9 8 3 4 4 3 3 1 5 8 8 6 2 3 5 5 4 3 3 3 3 2 2 2 1 2
1 3 3 3 2 3 5 3 3 4 4 6 7 5 3 3 7 9 10 8 5 4 4 3 2 8 9 8 5 6 8 6 3 3 2 2 2 2 1 1 2 2 2
3 3 3 4 4 4 4 5 4 2 3 3 4 5 3 2 4 10 10 10 8 5 3 5 7 9 11 7 8 11 6 3 3 3 3 3 3 2 2 1 1 1 3
4 4 4 5 5 4 3 2 3 3 4 4 4 4 3 3 4 3 4 5 7 5 6 6 10 11 12 7 5 5 3 3 3 3 2 2 1 1 2 1 1 2 3
4 4 4 4 5 5 5 3 4 5 3 4 4 4 3 3 2 5 5 4 4 6 6 5 4 4 4 3 3 2 2 2 2 2 2 1 1 0 1 1 3 3 5
3 3 3 4 4 5 7 7 16 15 16 15 11 6 2 5 7 10 11 11 12 10 4 5 4 3 3 2 2 2 2 3 2 1 0 1 2 2 3 3 3 4 6
4 4 5 4 4 6 6 6 7 10 17 16 12 8 7 8 7 10 12 11 10 7 5 4 3 2 1 1 1 1 2 2 2 3 3 3 3 3 4 4 5 5 6
7 8 6 4 4 4 4 5 5 5 6 4 10 13 12 12 12 9 9 10 5 4 4 4 3 2 1 1 1 1 2 2 2 2 2 3 3 4 4 4 5 6 6
5 5 6 6 6 5 3 4 4 6 6 5 4 7 10 10 11 13 12 4 2 3 2 3 2 2 2 2 3 2 3 3 3 3 3 2 3 3 4 4 5 5 6
9 13 9 6 6 6 4 5 6 6 6 6 6 7 5 5 4 4 4 4 4 4 4 4 3 3 3 3 3 3 3 3 3 3 4 3 3 3 5 5 5 6 6
7 7 11 9 8 7 6 6 6 6 6 5 5 8 12 5 4 4 4 4 4 4 4 4 4 3 3 3 3 3 4 4 4 4 4 4 3 4 4 5 5 5 6
7 8 8 7 6 7 6 6 6 6 7 6 5 5 11 5 4 4 4 4 3 3 3 4 4 4 4 4 4 5 5 5 5 4 4 4 4 4 5 6 6 6 6
8 8 8 7 7 7 6 6 6 6 5 5 5 5 5 5 5 5 5 5 4 4 4 4 5 5 5 4 4 5 6 6 5 3 4 5 5 5 5 6 6 5 5
7 8 7 7 6 6 6 6 5 6 6 5 5 5 5 5 5 6 6 5 5 5 5 5 5 7 6 6 5 5 6 6 5 5 5 6 6 6 6 6 6 6 5
7 7 6 6 5 5 4 4 4 4 4 4 4 4 5 5 6 6 6 5 5 6 7 6 6 8 9 9 9 10 9 9 8 6 5 7 8 9 7 6 7 6 7
6 6 5 5 5 5 5 5 5 5 5 5 5 6 6 6 6 7 7 6 6 6 7 6 8 10 10 9 11 11 9 10 9 9 7 8 8 8 7 8 10 7 7
Wind_Direction
246 236 230 231 232 235 234 231 233 237 228 214 213 213 220 224 224 224 224 226 224 229 229 229 233 234 232 233 233 230 233 230 248 186 125 164 180 186 189 204 197 195 203
257 246 237 234 233 233 234 236 234 232 234 226 221 218 219 220 224 221 224 226 229 227 229 230 232 233 234 233 231 230 233 233 234 233 140 174 192 203 202 196 193 200 202
255 240 236 233 231 233 233 234 232 229 229 221 223 224 226 224 222 220 221 222 221 225 229 233 236 232 235 234 231 219 206 167 165 146 156 156 151 166 183 202 186 195 201
239 224 225 228 234 241 241 237 232 230 233 222 219 221 225 224 224 222 218 221 228 233 235 241 239 232 232 216 191 192 163 164 163 144 142 166 146 153 181 184 186 193 188
257 226 222 221 224 213 212 217 218 223 228 230 223 220 216 215 210 206 209 216 215 182 157 140 151 171 188 200 181 186 167 158 146 182 179 158 163 166 194 173 200 180 194
256 241 172 156 186 196 232 267 281 201 182 168 184 170 160 132 172 193 171 169 168 166 170 165 158 175 164 225 240 189 200 173 185 166 171 199 180 172 163 169 159 169 208
234 211 195 185 195 187 169 152 185 184 103 53 56 101 108 98 145 133 156 136 154 168 170 157 151 117 88 86 99 97 177 128 80 151 150 188 179 178 159 172 188 196 197
215 223 201 178 191 177 175 162 143 128 122 113 88 82 97 55 42 71 58 86 83 74 86 111 127 112 71 65 91 74 71 84 125 185 194 199 179 162 182 180 182 154 90
199 206 197 184 183 176 165 172 146 134 111 93 85 86 92 59 76 78 89 88 82 73 63 57 75 85 122 136 117 131 116 53 48 128 247 228 193 184 170 126 157 172 219
194 190 190 178 181 173 158 142 119 116 119 120 100 83 89 101 93 95 109 118 108 104 78 67 78 119 140 121 109 140 123 105 95 64 40 56 55 133 160 46 149 186 158
157 162 168 167 178 150 126 116 136 130 120 108 98 90 92 72 93 97 108 109 126 120 109 93 68 117 123 112 121 94 71 131 135 106 80 62 57 76 118 88 54 337 192
154 150 138 118 110 107 120 102 91 129 137 122 115 91 33 64 90 92 90 94 104 110 111 116 109 124 126 105 111 100 97 109 99 104 114 104 87 79 47 153 153 196 263
136 112 102 98 91 78 118 121 113 89 134 129 122 121 115 60 83 94 88 90 93 100 106 121 108 97 120 91 94 91 82 84 113 118 105 86 52 16 352 48 131 259 263
123 113 106 110 95 78 78 78 123 145 147 140 129 121 121 112 109 102 81 82 79 72 75 76 86 83 77 73 76 85 95 100 102 103 99 83 61 350 313 267 249 243 256
125 107 99 92 102 95 64 72 84 49 67 115 93 117 140 133 132 130 129 119 110 101 81 75 81 86 87 85 91 103 122 127 117 128 119 103 108 14 311 287 256 247 247
115 103 102 103 96 111 107 91 74 80 79 80 83 82 60 113 139 126 117 114 113 123 99 116 114 109 123 147 163 120 77 54 50 45 161 258 261 251 267 252 263 270 275
110 111 102 114 119 113 112 116 107 76 66 61 66 89 67 66 116 130 126 117 114 106 101 96 96 110 132 95 16 15 4 5 344 302 291 293 282 265 263 268 271 269 268
87 74 88 95 99 97 105 116 133 123 111 73 37 49 66 62 55 50 150 126 114 90 108 117 124 133 107 70 39 8 328 304 302 298 278 279 271 271 274 271 270 272 274
58 68 86 78 63 64 82 101 99 94 89 80 56 39 26 39 53 40 35 42 68 89 53 79 48 28 359 340 331 324 328 307 314 301 283 273 273 272 272 270 272 270 279
43 50 50 64 74 63 54 76 81 81 79 67 50 31 1 22 44 37 33 20 31 35 22 11 8 357 351 345 337 335 311 289 280 273 272 273 272 269 270 274 271 272 271
37 45 50 53 50 46 40 42 50 58 60 58 45 11 32 36 33 31 18 21 16 8 358 348 340 335 334 330 322 306 288 276 269 267 268 268 265 264 258 264 266 257 260
36 42 46 51 54 49 42 39 40 44 41 33 17 7 12 21 10 5 1 358 351 333 323 316 310 310 312 304 298 283 276 275 277 271 276 281 276 267 260 258 254 252 257
34 42 46 45 44 40 42 37 33 32 29 19 8 358 358 357 347 337 331 328 323 316 316 308 300 295 291 278 276 274 276 277 287 296 279 274 265 261 256 259 256 253 252
35 40 40 40 36 33 26 23 17 17 5 358 348 340 329 323 318 310 305 305 305 301 295 282 272 274 282 279 271 261 258 263 269 265 259 265 267 261 256 255 254 252 257
20 24 27 24 22 16 6 6 357 348 338 328 320 310 310 306 300 296 295 292 285 281 276 270 264 264 264 260 259 261 264 265 257 256 246 245 250 252 247 246 247 245 241
9 10 10 7 3 357 349 343 337 330 323 316 309 305 301 298 294 294 295 293 291 290 286 280 273 273 274 272 266 262 256 256 251 236 238 243 241 241 240 236 234 235 236